Showing default

OPS 1117 (TRANSIT 12), 2119

Orbit data source: Space-Track

OPS 1117 (TRANSIT 12), 2119 is a payload satellite owned by USN BuWeps (US) in LEO that was launched on Sat, 26 Mar 1966 UTC via an SCOUT A launch vehicle from the Air Force Western Test Range (AFWTR). Payload-class satellites include a variety of spacecraft equipped with specific instruments for various scientific and technological missions. These include communications satellites like Starlink; space stations such as the ISS; scientific satellites like the Hubble; Earth observation satellites from companies like Planet Labs, Umbra, and HawkEye 360; GPS; miniature CubeSats for education and research; and military/defense satellites.

Loading next visibility...
Identifier
2119, 1966-024A
Orbit
LEO
Country
Flag of USUS
Related business
Manufacturer
APL
Mission
Spacecraft
Bus & Motor
TRANSIT 5, Unknown motor
Mass
51 kg wet, 51 kg dry
Launch date (UTC)
1966-03-26 (60 years ago)
Launch vehicle
SCOUT A
Launch site
Air Force Western Test Range (AFWTR)
Object type
Payload
Rocket body
Debris
Shape & HBR
Unknown
Radar Cross Section
Large (>1 m²)

Expand to show TLE details & history
Last TLE update: 15 hours ago

TLE from 15 hours ago
0 OPS 1117 (TRANSIT 12)
1  2119U 66024A   25296.46279060  .00000238  00000-0  21761-3 0  9992
2  2119  89.6054  98.3069 0147665  41.3969 319.8274 13.75316542982643
Epoch: 2025-10-23T11:06Z
TLE epoch observation values (Epoch: 2025-10-23T11:06:25.107Z)
Latitude
-0.00004°
Longitude
-100.4194°
Altitude
901.169 km
Speed
7.443 km/s
True Right ascension
06h 33m 13s
True Declination
0° 00' 00"
Sunlit
Object was in daylight at epoch
Visualization orbit readout
Latitude
Unknown
Longitude
Unknown
Altitude
Unknown
Speed
Unknown
Apparent Right ascension
Unknown
Apparent Declination
Unknown
Sunlit
N/A
Visualization observer readout
Local Sidereal Time
21:01:53
Azimuth
Unknown
Elevation
Unknown
Doppler factor
Unknown
Orbital elements
Apogee altitude
1,086.176 km
Perigee altitude
868.94 km
Semi-major axis
7,355.695 km
Eccentricity
0.01477
Inclination
89.6054°
RAAN
98.3069°
Arg. of periapsis
41.3969°
True anomaly
318.72029°
Mean anomaly
319.8274°
Eccentric anomaly
319.27541°
Mean motion
3.44039 °/min
Orbital period
104.64 mins
BSTAR
0.00021761
Loading maneuver chart data...
Computing Atmospheric mass density...
Loading historical data...
Loading historical data...
Loading historical data...
Loading historical data...
Loading historical data...
Loading historical data...
Loading historical data...

Documentation

Showing up to 5 results
|